Regional Weather Roundup
Issued by NWS Albany, NY

Home | Current Version | Previous Version | Text Only | Print | Product List | Glossary On
Versions: 1 2 3 4 5 6 7 8 9 10 11 12 13 14 15 16 17 18 19 20 21 22 23 24 25 26 27 28 29 30 31 32 33 34 35 36 37 38 39 40 41 42 43 44 45 46 47 48 49 50
000
ASUS41 KALY 230610
RWRALY

NEW YORK STATE HOURLY WEATHER ROUNDUP
NATIONAL WEATHER SERVICE ALBANY NY
100 AM EST TUE JAN 23 2018

NOTE: "FAIR" INDICATES FEW OR NO CLOUDS BELOW 12,000 FEET WITH NO
SIGNIFICANT WEATHER AND/OR NO OBSTRUCTIONS TO VISIBILITY.

NYZ032-033-038>043-046>054-057>066-NYZ062>081-082-084-230700-
EAST


CITY           SKY/WX    TMP DP  RH WIND       PRES   REMARKS
ALBANY         CLOUDY    38  34  85 S9        29.97F WCI  31
GLENS FALLS    CLOUDY    30  30 100 CALM      29.99F FOG
POUGHKEEPSIE   CLOUDY    39  37  92 SE3       30.00F FOG
NEWBURGH       FOG       39  39 100 SE12      30.01F VSB 1/4 WCI  32
MONTGOMERY     FOG       37  36  96 N7        29.98F VSB 1/4 WCI  32
WHITE PLAINS   FOG       39  39 100 SE6       30.01F VSB 1/4 WCI  35
ISLIP          FOG       43  42  97 E3        30.03F VSB 1/2
NEW YORK CITY  FOG       36  35  96 NE8       30.03F VSB 1/8 WCI  30
CENTRAL PARK   CLOUDY    38  38 100 VRB6      30.04F FOG     WCI  33
$$

NYZ005>009-017-018-044>046-055-056-230700-
CENTRAL


CITY           SKY/WX    TMP DP  RH WIND       PRES   REMARKS
FULTON         CLOUDY    43  38  82 VRB7      29.74F
SYRACUSE       LGT RAIN  46  40  79 SE14G21   29.74F
ROME           FAIR      38  37  97 E9        29.84F WCI  31
ELMIRA         CLOUDY    45  41  86 CALM      29.77F
BINGHAMTON     FAIR      41  37  86 SE13      29.79F
MONTICELLO     LGT RAIN  35  35 100 E7        29.95F VSB 1/4 WCI  29
$$

NYZ026>034-041>043-087-230700-
NORTH


CITY           SKY/WX    TMP DP  RH WIND       PRES   REMARKS
WATERTOWN      MOCLDY    32  32 100 NE5       29.72F FOG     WCI  27
FORT DRUM      NOT AVBL
OGDENSBURG     MIX PCPN  26  25  96 E8        29.78F WCI  18
MASSENA        CLOUDY    25  25 100 NE16      29.84F WCI  12
SARANAC LAKE   FAIR      33  32  96 CALM      29.79F
PLATTSBURGH    CLOUDY    37  31  78 S16G25    29.91F WCI  28
$$

NYZ001>004-010>016-019>021-085-230700-
WEST


CITY           SKY/WX    TMP DP  RH WIND       PRES   REMARKS
NIAGARA FALLS  FOG       42  39  89 E5        29.58F VSB 3/4
BUFFALO        CLOUDY    50  44  80 S12       29.58F
DUNKIRK        FAIR      54  45  71 S26G35    29.57F
JAMESTOWN      CLOUDY    47  43  86 SE8       29.62F
WELLSVILLE     LGT RAIN  47  42  83 S15G30    29.71F
ROCHESTER      LGT RAIN  48  43  82 S8        29.64F
PENN YAN       CLOUDY   N/A N/A N/A S5        29.72F
$$

             KEY
       WCI = WIND CHILL INDEX
       VSB = VISIBILITY
       HX  = HEAT INDEX
$$



USA.gov is the U.S. government's official web portal to all federal, state and local government web resources and services.